CAPE
1848 2108 1768 1482 1706 1977 2378 2666 2646 2336 2149 2161 1951 2028 1869 1667 1832 1753 1638 1520 1425 1293 1223 980 939 843 712 425 207 128 62 14 6 160 325 706 664 964 617 668 641 237 523
1939 2050 1868 1689 1764 2004 2350 2636 2616 2347 2330 2317 2174 2122 1795 1807 1888 1692 1442 1275 1280 1384 1387 1225 898 672 572 287 191 50 0 0 0 11 146 612 742 617 665 391 284 407 403
2057 2025 2189 1886 1780 2023 2371 2635 2675 2513 2529 2431 2361 2131 1768 1849 1850 1512 1244 1452 1861 1573 1038 893 711 600 367 120 0 0 0 0 0 0 23 426 867 582 684 579 539 525 510
2197 1884 2047 2015 1870 1962 2280 2546 2697 2735 2609 2490 2221 1899 1987 1890 1715 1376 1371 1263 1262 1133 1101 896 729 487 30 0 0 0 0 0 0 0 5 91 823 754 753 572 828 955 624
2034 2078 2055 1910 1924 1804 2088 2502 2642 2642 2477 2388 2093 1957 1872 1767 1565 1392 1215 1145 1107 1114 927 817 388 2 0 0 0 0 0 0 0 14 867 1201 1021 1151 964 851 800 689 699
2047 2164 2035 1729 1841 1661 1846 2280 2569 2489 2374 2149 1774 1621 1705 1589 1485 1226 1079 1086 1017 875 572 160 0 0 0 0 0 0 0 0 0 879 932 991 941 839 619 442 384 348 282
1982 2214 2292 1758 1804 1730 1494 1835 2009 2135 1984 1726 1636 1668 1650 1499 1330 1115 956 795 562 204 3 0 0 0 0 0 0 0 0 0 2 194 397 474 359 262 136 45 11 1 1
1896 2000 2096 1952 1917 1902 1622 1390 1529 1635 1674 1697 1696 1651 1630 1470 1158 896 576 194 4 0 0 0 0 0 0 0 0 0 0 0 6 53 137 168 168 134 34 1 1 1 2
1743 2007 1903 2024 2125 1892 1790 1708 1563 1558 1552 1627 1613 1557 1394 1028 756 306 18 0 0 0 0 0 0 0 0 0 0 0 0 0 0 3 31 36 91 69 10 7 5 2 1
1684 1766 1840 1626 1732 1968 2077 1713 1614 1553 1457 1398 1239 918 545 244 133 0 0 0 0 0 0 0 0 0 0 0 0 0 0 0 0 0 3 14 26 12 4 1 0 0 1
1901 1711 1887 1874 1714 1971 2169 1764 1499 1415 1169 916 614 249 99 0 0 0 0 0 0 0 0 0 0 0 0 0 0 0 0 0 3 1 17 29 15 10 7 1 2 2 2
1972 1790 2028 1984 1979 1979 1886 1505 1609 1192 954 475 131 21 86 0 1 0 0 0 0 0 0 0 0 0 0 0 0 0 0 0 0 0 22 14 16 11 4 2 2 1 2
1772 2090 2037 2251 2045 1964 1538 1253 661 430 226 37 2 0 1 0 0 0 0 0 0 0 0 0 0 0 0 0 0 0 2 0 0 0 0 4 17 18 16 9 1 5 3
1734 1832 2090 2068 2216 1855 1533 1059 535 138 0 0 0 0 0 0 0 0 0 0 0 0 0 0 0 0 0 0 0 0 3 2 0 0 0 0 2 13 13 9 3 3 5
1418 1502 1775 1951 1774 1504 920 368 276 32 0 0 0 0 0 0 0 2 0 0 0 0 0 0 0 0 0 0 0 0 2 3 0 0 0 0 1 4 12 10 10 8 7
1484 1112 1015 1651 1300 995 629 114 4 2 0 0 0 0 0 0 1 4 0 0 0 0 0 0 0 0 0 0 0 0 0 0 3 2 2 0 2 5 5 9 16 17 23
1773 1306 597 636 735 648 315 260 12 1 0 0 0 0 0 0 0 0 0 0 0 0 0 0 0 0 0 0 0 0 0 0 0 0 0 0 0 1 5 10 13 12 20
1242 1172 740 163 157 201 101 0 0 0 0 0 0 0 0 0 0 0 0 0 0 0 0 0 0 0 0 0 0 0 0 0 0 0 0 0 0 1 3 5 3 4 9
940 1012 799 135 2 4 0 0 0 1 0 0 0 0 0 0 0 0 0 0 0 0 0 0 0 0 0 0 0 0 0 0 0 0 0 0 0 0 1 2 1 0 1
673 926 963 199 3 2 1 0 0 0 0 0 0 0 0 0 0 0 0 0 0 0 0 0 0 0 0 0 0 0 0 0 0 0 0 0 0 0 1 0 0 0 0
714 884 1034 356 18 2 2 2 0 0 0 0 0 0 0 0 0 0 0 0 0 0 0 0 0 0 0 0 0 0 0 0 0 0 0 0 0 0 0 0 0 0 1
587 1425 965 535 55 2 1 1 0 0 0 0 0 0 0 0 0 0 0 0 0 0 0 0 0 0 0 0 0 0 0 0 0 0 0 0 0 0 0 0 0 1 1
512 1094 1001 607 93 2 0 2 0 0 0 0 0 0 0 0 0 0 0 0 0 0 0 0 0 0 0 0 0 0 0 0 0 0 0 0 0 0 0 0 0 0 0
197 631 946 449 255 0 0 1 0 0 0 0 0 0 0 0 0 0 0 0 0 0 0 0 0 0 0 0 0 0 0 0 0 0 0 0 0 0 0 0 0 0 0
0 71 450 706 287 3 1 0 0 0 0 0 0 0 0 0 0 0 0 0 0 0 0 0 0 0 0 0 0 0 0 0 0 0 0 0 0 0 0 0 0 0 0
0 0 1 649 368 3 1 1 0 0 0 0 0 0 0 0 0 0 0 0 0 0 0 0 0 0 0 0 0 0 0 0 0 0 0 0 0 0 0 0 0 0 0
CIN
-130 -238 -292 -354 -286 -222 -114 -75 -74 -102 -89 -60 -64 -62 -69 -75 -42 -36 -34 -33 -30 -43 -51 -78 -71 -71 -94 -165 -220 -238 -257 -275 -83 -134 -70 -34 -33 -17 -27 -24 -15 -26 -32
-138 -217 -265 -284 -241 -176 -94 -48 -53 -74 -63 -45 -46 -50 -70 -51 -25 -28 -39 -46 -40 -31 -27 -45 -87 -122 -139 -214 -234 -294 -0 -0 -0 -60 -106 -55 -39 -29 -24 -42 -45 -37 -40
-144 -186 -150 -202 -217 -147 -48 -21 -19 -41 -37 -32 -22 -35 -49 -30 -15 -36 -46 -17 -2 -16 -69 -89 -122 -143 -197 -298 -0 -0 -0 -0 -0 -0 -120 -31 -29 -32 -23 -29 -31 -29 -28
-172 -172 -133 -140 -151 -120 -51 -11 -12 -9 -14 -14 -31 -33 -31 -25 -23 -41 -23 -28 -24 -38 -59 -84 -110 -166 -295 -0 -0 -0 -0 -0 -0 -0 -16 -9 -6 -31 -15 -18 -9 -6 -10
-212 -167 -140 -138 -97 -93 -34 -6 -10 -10 -19 -25 -33 -29 -29 -25 -33 -36 -38 -35 -34 -35 -63 -84 -193 -96 -0 -0 -0 -0 -0 -0 -0 -179 -2 -4 -0 -1 -2 -1 -2 -11 -11
-206 -150 -161 -189 -111 -83 -40 -15 -13 -24 -32 -48 -68 -76 -67 -74 -46 -51 -51 -42 -60 -86 -131 -255 -1 -0 -0 -0 -0 -0 -0 -0 -0 -2 -7 -0 -0 -2 -6 -15 -21 -24 -30
-191 -148 -129 -169 -114 -119 -78 -40 -41 -44 -53 -70 -73 -59 -63 -93 -99 -72 -69 -84 -140 -264 -197 -0 -0 -0 -0 -0 -0 -0 -0 -0 -83 -54 -43 -6 -19 -31 -84 -148 -139 -0 -0
-189 -155 -116 -105 -82 -41 -64 -59 -44 -44 -39 -28 -35 -42 -48 -82 -144 -107 -144 -215 -178 -0 -0 -0 -0 -0 -0 -0 -0 -0 -0 -0 -148 -86 -116 -77 -53 -50 -127 -0 -0 -0 -0
-157 -152 -132 -85 -34 -18 -26 -18 -29 -32 -23 -9 -9 -19 -26 -84 -179 -181 -216 -0 -0 -0 -0 -0 -0 -0 -0 -0 -0 -0 -0 -0 -0 -124 -122 -139 -87 -90 -0 -0 -0 -0 -0
-173 -137 -112 -115 -71 -30 -0 -9 -32 -21 -17 -12 -25 -50 -103 -171 -286 -0 -0 -0 -0 -0 -0 -0 -0 -0 -0 -0 -0 -0 -0 -0 -0 -0 -0 -1 -0 -0 -0 -0 -0 -0 -0
-142 -140 -93 -76 -57 -20 -1 -10 -15 -17 -34 -48 -88 -151 -188 -0 -0 -0 -0 -0 -0 -0 -0 -0 -0 -0 -0 -0 -0 -0 -0 -1 -26 -2 -1 -1 -0 -0 -0 -0 -0 -0 -0
-140 -121 -64 -53 -26 -1 -4 -27 -15 -36 -43 -162 -282 -309 -171 -66 -0 -0 -0 -0 -0 -0 -0 -0 -0 -0 -0 -0 -0 -0 -0 -0 -0 -0 -0 -1 -0 -0 -0 -1 -0 -0 -0
-145 -81 -58 -19 -20 -1 -5 -26 -167 -223 -262 -336 -184 -0 -299 -0 -0 -0 -0 -0 -0 -0 -0 -0 -0 -0 -0 -0 -0 -0 -1 -0 -0 -0 -0 -2 -0 -0 -1 -0 -0 -0 -0
-139 -106 -46 -29 -3 -5 -9 -34 -131 -285 -0 -0 -0 -0 -0 -0 -0 -0 -0 -0 -0 -0 -0 -0 -0 -0 -0 -0 -0 -0 -0 -1 -0 -0 -0 -0 -6 -0 -0 -0 -1 -0 -0
-166 -154 -80 -47 -45 -43 -137 -240 -194 -318 -0 -0 -0 -0 -0 -0 -0 -0 -0 -0 -0 -0 -0 -0 -0 -0 -0 -0 -0 -0 -0 -4 -0 -0 -0 -0 -4 -0 -0 -0 -0 -1 -0
-151 -198 -179 -62 -88 -105 -158 -315 -170 -0 -0 -0 -0 -0 -0 -0 -0 -1 -0 -0 -0 -0 -0 -0 -0 -0 -0 -0 -0 -0 -0 -0 -0 -0 -0 -0 -0 -0 -0 -0 -0 -0 -0
-67 -127 -266 -217 -167 -177 -231 -220 -390 -0 -0 -0 -0 -0 -0 -0 -0 -0 -0 -0 -0 -0 -0 -0 -0 -0 -0 -0 -0 -0 -0 -0 -0 -0 -0 -0 -0 -0 -0 -0 -0 -0 -0
-58 -155 -210 -352 -336 -294 -340 -0 -0 -0 -0 -0 -0 -0 -0 -0 -0 -0 -0 -0 -0 -0 -0 -0 -0 -0 -0 -0 -0 -0 -0 -0 -0 -0 -0 -0 -0 -1 -0 -0 -0 -0 -1
-136 -144 -198 -364 -0 -454 -0 -0 -0 -0 -0 -0 -0 -0 -0 -0 -0 -0 -0 -0 -0 -0 -0 -0 -0 -0 -0 -0 -0 -0 -0 -0 -0 -0 -0 -0 -0 -0 -0 -0 -0 -0 -0
-118 -142 -121 -333 -0 -0 -0 -0 -0 -0 -0 -0 -0 -0 -0 -0 -0 -0 -0 -0 -0 -0 -0 -0 -0 -0 -0 -0 -0 -0 -0 -0 -0 -0 -0 -0 -0 -0 -0 -0 -0 -0 -2
-67 -131 -102 -256 -195 -0 -0 -0 -0 -0 -0 -0 -0 -0 -0 -0 -0 -0 -0 -0 -0 -0 -0 -0 -0 -0 -0 -0 -0 -0 -0 -0 -0 -0 -0 -0 -0 -0 -0 -1 -0 -0 -0
-63 -21 -122 -165 -378 -0 -0 -0 -0 -0 -0 -0 -0 -0 -0 -0 -0 -0 -0 -0 -0 -0 -0 -0 -0 -0 -0 -0 -0 -0 -0 -0 -0 -0 -0 -0 -0 -0 -0 -0 -0 -0 -0
-46 -2 -58 -126 -335 -0 -0 -0 -0 -0 -0 -0 -0 -0 -0 -0 -0 -0 -0 -0 -0 -0 -0 -0 -0 -0 -0 -0 -0 -0 -0 -0 -0 -0 -0 -0 -0 -0 -0 -0 -0 -0 -0
-59 -12 -9 -138 -218 -1 -0 -0 -0 -0 -0 -0 -0 -0 -0 -0 -0 -0 -0 -0 -0 -0 -0 -0 -0 -0 -0 -0 -0 -0 -0 -0 -0 -0 -0 -0 -0 -0 -0 -0 -1 -0 -0
-0 -49 -16 -33 -174 -73 -0 -0 -0 -0 -0 -0 -0 -0 -0 -0 -0 -0 -0 -0 -0 -0 -0 -0 -0 -0 -0 -0 -0 -0 -0 -0 -0 -0 -0 -0 -0 -0 -0 -0 -0 -0 -0
-0 -0 -31 -3 -119 -257 -0 -0 -0 -0 -0 -0 -0 -0 -0 -0 -0 -0 -0 -0 -0 -0 -0 -0 -0 -0 -0 -0 -0 -0 -0 -0 -0 -0 -0 -0 -0 -0 -0 -0 -0 -0 -0
Wind_Speed
12 8 5 4 3 2 3 4 7 9 10 10 10 10 10 11 11 12 12 12 13 13 14 14 15 16 17 18 19 20 20 20 19 18 18 19 18 18 18 19 18 18 17
10 9 5 3 3 2 2 3 6 8 8 8 8 10 10 10 11 11 11 11 11 11 12 13 14 15 16 17 18 19 20 19 19 17 16 17 17 18 18 18 18 17 17
9 9 6 3 1 2 2 3 4 6 7 7 6 6 6 7 8 9 9 9 10 10 11 12 13 14 15 16 17 18 19 19 19 17 17 11 18 17 17 17 17 17 17
9 6 4 1 1 1 1 2 4 5 6 5 5 5 4 5 6 6 7 7 8 9 10 11 12 13 14 15 16 17 18 18 18 16 16 18 16 16 16 17 17 17 16
8 6 3 2 1 1 2 2 3 4 5 5 5 4 3 3 3 4 5 6 7 8 9 10 11 12 14 15 16 16 17 16 16 16 19 21 17 17 16 16 16 16 17
7 5 3 3 3 3 3 3 3 4 4 5 5 4 2 1 3 5 5 6 6 7 8 9 11 12 13 14 16 16 16 16 16 17 20 20 18 17 16 16 16 17 17
6 5 5 5 6 6 5 5 5 5 5 5 5 4 2 2 5 5 6 7 7 7 7 9 10 11 12 13 15 15 16 18 17 17 18 18 17 17 16 17 17 17 17
5 5 5 5 7 6 7 7 6 4 5 5 4 4 2 2 3 5 6 7 7 7 7 8 9 10 11 12 13 14 15 16 17 17 18 16 17 17 17 17 17 17 18
3 4 4 5 7 6 6 6 6 5 5 5 4 2 2 1 1 7 8 8 7 7 7 7 8 9 10 12 12 14 15 17 15 16 15 15 16 17 17 18 18 18 18
2 2 3 4 6 6 5 6 7 6 5 5 4 5 4 4 3 3 4 7 7 8 7 7 8 9 10 11 12 13 15 15 14 13 14 14 15 17 18 18 19 19 19
1 2 4 5 7 8 7 6 6 6 6 5 5 5 4 6 5 4 7 7 10 5 6 8 7 8 9 10 10 11 13 16 14 12 13 13 15 17 19 19 20 20 20
5 5 5 6 7 8 6 8 8 6 6 5 6 6 6 5 5 4 3 3 4 6 7 8 8 7 8 9 10 12 11 14 15 14 13 14 16 17 19 20 20 21 21
8 6 7 7 7 6 4 6 5 5 6 6 6 6 6 6 4 6 5 4 4 4 7 8 7 10 9 8 11 12 10 11 12 13 15 15 17 18 20 20 21 21 22
10 9 8 8 7 6 5 5 6 6 7 7 7 7 8 7 7 6 5 4 5 6 7 8 11 12 12 10 11 8 8 9 9 11 14 16 17 19 20 21 21 22 22
13 12 12 11 10 8 7 7 7 7 8 9 9 10 9 9 9 8 8 8 8 8 8 10 10 10 10 13 8 7 8 9 9 10 13 16 18 19 20 21 22 22 22
14 15 15 13 12 12 11 10 10 9 9 9 10 10 11 12 10 10 10 10 10 8 7 6 5 6 8 8 7 7 7 8 9 9 11 15 17 18 19 21 22 22 22
14 15 16 17 15 13 14 12 11 10 9 10 10 11 12 13 11 11 11 13 11 10 9 8 5 5 3 5 6 7 7 8 9 10 10 13 15 18 20 20 22 23 23
15 14 14 16 17 16 15 14 13 12 11 10 9 10 12 12 12 11 12 12 11 10 9 7 5 3 2 3 5 8 7 8 9 10 11 12 13 15 19 20 21 22 23
16 15 15 15 17 17 17 14 14 13 13 12 11 11 12 11 11 11 11 11 11 10 7 6 5 5 3 4 3 8 6 9 10 12 12 14 14 13 15 18 20 21 22
15 13 14 15 15 17 16 16 16 15 14 13 14 13 13 12 12 12 12 11 10 9 8 7 6 4 2 2 5 5 8 9 10 11 13 13 14 15 14 14 17 19 20
15 12 13 13 14 17 17 17 17 18 18 17 16 15 14 13 13 13 12 10 10 9 9 8 6 5 4 1 3 5 9 10 10 12 13 13 14 15 14 15 15 15 17
15 12 11 13 14 15 18 19 21 19 19 19 17 17 16 15 14 13 12 10 10 9 9 9 9 7 5 5 8 7 12 9 11 12 12 12 13 13 14 16 16 16 16
15 14 13 14 15 15 17 19 21 20 20 18 18 18 18 16 15 15 12 10 10 10 10 10 10 9 8 8 6 13 13 15 10 12 12 12 10 12 12 13 14 15 16
18 18 15 16 17 18 18 20 22 24 24 22 21 19 18 17 16 15 13 12 12 11 11 12 11 10 8 11 10 13 15 9 14 14 11 10 10 11 11 12 13 14 15
28 23 23 21 21 20 20 21 23 24 24 21 21 20 19 18 18 16 15 14 14 13 12 13 13 13 12 11 11 11 10 12 11 12 11 9 9 10 11 11 12 13 14
32 32 31 26 27 25 24 23 24 25 26 25 24 23 21 20 19 18 17 16 16 16 14 14 13 13 13 11 11 10 11 12 11 10 9 7 8 10 11 11 12 12 13
Wind_Direction
7 59 97 99 97 76 56 89 111 118 117 111 104 96 88 82 75 68 60 56 53 52 48 43 38 34 28 26 25 23 23 22 21 25 24 24 26 21 10 354 341 2 357
45 59 94 96 98 81 55 94 121 124 124 117 111 105 98 89 82 72 63 58 54 49 47 42 35 33 31 30 26 23 22 22 21 27 31 29 31 22 9 357 357 0 359
40 58 96 80 73 95 83 104 126 132 130 126 120 110 96 84 73 68 62 51 58 50 39 38 35 33 30 28 28 23 19 19 18 23 29 45 23 23 13 4 360 358 359
12 29 85 64 97 109 105 117 134 139 137 133 130 115 97 82 65 52 41 38 32 31 39 34 32 27 26 24 22 23 21 22 17 34 25 5 29 22 14 5 1 352 3
20 30 61 136 230 184 154 144 150 160 154 145 139 125 109 71 33 23 14 16 16 17 20 20 17 14 16 18 18 24 23 29 32 23 14 1 17 16 11 3 3 356 354
24 27 52 135 187 201 196 186 182 179 174 164 165 156 161 246 324 337 346 350 357 357 358 0 6 11 16 15 13 19 24 31 19 20 5 11 13 15 9 2 358 354 350
35 44 71 123 147 168 186 185 184 185 188 188 183 181 195 267 295 307 319 324 333 347 353 357 2 8 12 14 15 18 22 15 26 20 15 12 8 11 9 3 359 355 350
58 59 79 125 144 156 168 175 186 202 210 205 211 240 261 307 273 294 305 313 321 333 342 355 5 7 7 9 16 17 21 17 25 21 24 7 11 13 10 6 0 356 353
47 49 91 126 143 157 167 173 182 200 213 220 221 251 297 335 274 294 297 306 317 325 335 349 0 6 7 8 13 17 16 16 18 15 21 7 10 15 13 9 3 357 353
360 23 121 140 152 158 176 176 181 190 190 196 235 279 294 302 306 282 294 304 314 318 327 349 355 7 360 7 15 29 38 31 13 10 357 2 17 14 9 3 358 354 351
210 201 164 154 158 161 167 174 186 188 194 212 252 261 275 292 298 290 293 293 300 8 333 336 353 359 360 6 12 28 8 20 1 358 4 17 18 12 6 1 357 355 350
225 204 196 183 173 167 164 171 173 187 207 229 246 251 271 281 291 305 334 356 349 350 337 333 343 356 358 6 6 8 10 20 6 357 8 15 15 11 6 3 359 355 352
254 241 208 202 194 187 173 173 199 217 228 225 230 246 264 269 267 291 294 314 334 340 335 328 328 325 332 346 346 359 19 19 22 11 3 11 11 8 3 0 356 352 350
247 241 232 233 230 206 203 214 212 221 231 242 238 241 257 258 261 268 269 276 299 307 317 309 309 314 320 338 332 348 2 27 23 10 360 2 3 1 359 359 357 356 354
251 247 243 236 226 226 223 238 227 229 234 240 248 254 249 258 258 264 270 280 288 298 302 302 307 307 315 316 351 16 348 20 16 3 356 359 360 359 357 356 356 360 0
250 245 241 250 234 233 246 240 239 242 238 242 248 245 253 258 259 262 269 278 286 288 292 296 291 307 309 325 352 355 347 360 10 14 1 356 358 357 356 355 356 355 356
254 253 239 236 243 239 241 244 243 243 239 242 243 243 247 258 257 261 271 279 282 285 288 289 288 308 326 343 345 344 335 348 352 2 3 358 356 356 355 355 356 357 357
263 250 239 238 235 243 241 240 247 244 243 246 241 237 246 250 258 265 274 277 276 281 280 277 263 262 294 307 315 314 331 339 349 346 347 347 352 354 353 355 354 355 355
264 257 235 237 237 236 249 245 245 243 248 250 253 248 243 247 249 263 270 275 277 281 272 257 262 268 271 271 305 299 344 335 335 336 341 336 343 352 354 356 357 355 356
266 254 240 235 238 236 242 248 252 252 252 253 255 255 243 246 253 260 270 270 265 262 259 250 246 246 247 291 310 319 320 328 335 332 332 345 345 342 344 351 357 357 355
269 250 245 234 234 238 233 235 245 245 253 258 254 249 239 247 249 256 263 261 254 249 241 234 236 230 226 228 287 331 333 332 328 324 327 340 341 343 349 351 355 359 1
270 249 239 238 236 236 242 244 254 248 251 251 252 249 248 244 242 249 253 250 236 240 228 222 224 225 240 217 279 297 301 322 324 326 333 338 341 346 348 348 352 355 357
278 266 262 249 246 245 246 248 251 253 254 247 247 249 246 241 244 246 244 241 233 232 226 221 218 220 233 212 232 298 297 301 311 323 327 331 337 342 347 352 354 355 356
294 285 273 270 261 257 250 251 239 241 242 248 246 247 243 239 240 238 240 239 233 233 224 223 220 227 237 244 257 286 304 311 301 309 318 327 334 339 344 348 350 352 351
299 293 284 276 273 267 262 256 249 243 244 244 243 242 240 239 239 236 241 240 242 239 231 222 218 234 245 247 260 267 283 302 307 312 305 310 328 334 337 343 346 350 350
301 297 293 284 278 274 267 260 253 247 244 244 240 237 236 238 238 236 234 240 241 243 232 228 230 234 244 252 256 263 272 286 293 302 311 298 310 324 330 333 336 343 350